FW7738 Weather Reports


time (UTC)temp
F
wind
direction
speed
knots
gust
knots
rain 1hr
in
rain 24hr
in
rain mn
in
humidity
%
barometer
mb
20221203052545 48 307 2.6 6.1 0.00 0.00 0.00 70 1008.5
20221203051521 48 285 1.7 3.5 0.00 0.00 0.00 71 1008.7
20221203050516 48 282 3.5 6.1 0.00 0.00 0.00 71 1008.7
20221203045531 48 286 3.5 6.1 0.00 0.00 0.00 72 1008.9
20221203044527 47 274 3.5 6.1 0.00 0.00 0.00 72 1008.9
20221203043522 47 278 3.5 7.0 0.00 0.00 0.00 72 1008.9
20221203042518 47 289 3.5 6.1 0.00 0.00 0.00 72 1009.0
20221203041534 47 274 3.5 7.0 0.00 0.00 0.00 72 1009.0
20221203040528 47 283 3.5 7.0 0.00 0.00 0.00 72 1009.0
20221203035524 47 293 3.5 7.0 0.00 0.00 0.00 72 1009.1
20221203034519 47 285 3.5 6.1 0.00 0.00 0.00 73 1009.1
20221203033535 47 282 3.5 7.0 0.00 0.00 0.00 73 1009.1
20221203032529 47 283 3.5 7.8 0.00 0.00 0.00 73 1009.2
20221203031525 47 281 4.3 7.8 0.00 0.00 0.00 73 1009.2
20221203030520 47 280 3.5 7.0 0.00 0.00 0.00 72 1009.3
20221203025535 47 282 3.5 7.0 0.00 0.00 0.00 72 1009.4
20221203024530 47 277 3.5 6.1 0.00 0.00 0.00 73 1009.5
20221203023525 47 283 3.5 7.0 0.00 0.00 0.00 73 1009.5
20221203022540 47 282 4.3 8.7 0.00 0.00 0.00 73 1009.7
20221203021636 47 285 3.5 6.1 0.00 0.00 0.00 73 1009.8
20221203020532 47 283 5.2 7.8 0.00 0.00 0.00 73 1009.8
20221203015547 47 277 3.5 7.0 0.00 0.00 0.00 73 1010.0
20221203014522 47 284 5.2 7.8 0.00 0.00 0.00 73 1010.0
20221203013538 47 274 4.3 7.0 0.00 0.00 0.00 73 1010.1
20221203012533 47 275 5.2 7.8 0.00 0.00 0.00 73 1010.2
20221203011528 48 274 4.3 7.8 0.00 0.00 0.00 72 1010.2
20221203010524 48 286 4.3 7.8 0.00 0.00 0.00 70 1010.2
20221203005519 49 267 3.5 6.1 0.00 0.00 0.00 68 1010.2
20221203004535 49 284 4.3 7.0 0.00 0.00 0.00 67 1010.2
20221203003530 49 293 4.3 7.0 0.00 0.00 0.00 68 1010.3
20221203002525 49 285 6.1 8.7 0.00 0.00 0.00 68 1010.4
20221203001541 49 290 5.2 8.7 0.00 0.00 0.00 69 1010.6
20221203000516 49 280 3.5 5.2 0.00 0.00 0.00 70 1010.7
20221202235533 49 284 4.3 7.8 0.00 0.00 0.00 70 1010.8
20221202234528 49 278 3.5 6.1 0.00 0.00 0.00 70 1010.8
20221202233523 49 272 3.5 5.2 0.00 0.00 0.00 70 1010.8
20221202232518 50 275 3.5 6.1 0.00 0.00 0.00 69 1011.0
20221202231534 51 278 2.6 5.2 0.00 0.00 0.00 67 1011.1
20221202230529 51 275 2.6 3.5 0.00 0.00 0.00 65 1011.2
20221202225524 52 280 2.6 5.2 0.00 0.00 0.00 64 1011.2
20221202224519 52 307 1.7 2.6 0.00 0.01 0.00 62 1011.3
20221202223555 52 308 2.6 3.5 0.00 0.02 0.00 61 1011.2
20221202222530 52 309 2.6 3.5 0.00 0.02 0.00 61 1011.4
20221202221525 52 317 2.6 3.5 0.00 0.02 0.00 61 1011.4
20221202220521 52 320 2.6 6.1 0.00 0.02 0.00 62 1011.4
20221202215516 52 329 4.3 7.8 0.00 0.02 0.00 62 1011.4
20221202214532 52 324 4.3 7.8 0.00 0.03 0.00 62 1011.4
20221202213547 53 324 4.3 7.8 0.00 0.03 0.00 61 1011.4
20221202212522 53 340 3.5 6.1 0.00 0.03 0.00 61 1011.5
20221202211517 53 357 3.5 6.1 0.00 0.03 0.00 61 1011.4
20221202210533 53 2 4.3 7.0 0.00 0.03 0.00 61 1011.5
20221202205528 53 8 3.5 7.0 0.00 0.03 0.00 61 1011.5
20221202204524 53 9 5.2 7.0 0.00 0.03 0.00 62 1011.2
20221202203539 53 4 3.5 7.0 0.00 0.03 0.00 63 1011.4
20221202202534 53 12 4.3 7.0 0.00 0.03 0.00 62 1011.4
20221202201530 53 21 4.3 7.0 0.00 0.03 0.00 63 1011.3
20221202200546 53 15 4.3 7.0 0.00 0.03 0.00 65 1011.5
20221202195521 53 23 3.5 6.1 0.00 0.03 0.00 66 1011.5
20221202194516 54 20 4.3 8.7 0.00 0.03 0.00 66 1011.5
20221202193532 54 28 3.5 7.8 0.00 0.03 0.00 66 1011.6
20221202192527 54 28 5.2 9.6 0.00 0.03 0.00 66 1011.6
20221202191522 54 33 3.5 7.8 0.00 0.03 0.00 67 1011.6
20221202190518 54 39 2.6 5.2 0.00 0.03 0.00 67 1011.7
20221202185554 54 25 3.5 7.0 0.00 0.03 0.00 68 1011.7
20221202184528 54 34 2.6 5.2 0.00 0.03 0.00 68 1011.7
20221202183524 53 34 2.6 5.2 0.00 0.03 0.00 69 1011.6
20221202182520 53 14 3.5 6.1 0.00 0.03 0.00 68 1011.6
20221202181535 54 22 3.5 7.0 0.00 0.03 0.00 68 1011.6
20221202180531 54 26 3.5 7.8 0.00 0.03 0.00 68 1011.6
20221202175526 54 36 2.6 6.1 0.00 0.03 0.00 68 1011.6
20221202174602 54 31 4.3 7.8 0.00 0.03 0.00 68 1011.6
20221202173516 54 29 3.5 6.1 0.00 0.03 0.00 68 1011.6
20221202172531 55 35 3.5 7.0 0.00 0.03 0.00 67 1011.7
20221202171527 55 50 4.3 8.7 0.00 0.03 0.00 66 1011.6
20221202170522 55 46 2.6 7.0 0.00 0.03 0.00 66 1011.7
20221202165518 55 54 3.5 7.0 0.00 0.03 0.00 64 1011.7
20221202164533 56 52 4.3 9.6 0.00 0.03 0.00 63 1011.7
20221202163529 56 42 4.3 8.7 0.00 0.03 0.00 63 1011.7
20221202162524 56 48 3.5 7.8 0.00 0.03 0.00 63 1011.7
20221202161520 56 53 5.2 11.3 0.00 0.03 0.00 62 1011.6
20221202160516 57 55 3.5 7.8 0.00 0.03 0.00 62 1011.7
20221202155531 57 64 5.2 8.7 0.00 0.03 0.00 60 1011.5
20221202154527 57 60 4.3 8.7 0.00 0.03 0.00 58 1011.5
20221202153523 57 53 3.5 7.8 0.00 0.03 0.00 58 1011.4
20221202152538 57 57 5.2 9.6 0.00 0.03 0.00 58 1011.3
20221202151533 57 50 7.0 15.6 0.00 0.03 0.00 56 1011.3
20221202150528 57 50 8.7 16.5 0.00 0.03 0.00 56 1011.3
20221202145544 57 51 7.0 13.0 0.00 0.03 0.00 58 1011.3
20221202144519 57 49 7.0 13.9 0.00 0.03 0.00 58 1011.3
20221202143535 57 56 5.2 12.2 0.00 0.03 0.00 58 1011.4
20221202142550 57 64 5.2 9.6 0.00 0.03 0.00 57 1011.5
20221202141526 57 65 5.2 12.2 0.00 0.03 0.00 57 1011.6
20221202140521 58 68 6.1 13.0 0.00 0.03 0.00 55 1011.6
20221202135516 58 60 4.3 11.3 0.00 0.03 0.00 56 1011.6
20221202134531 58 58 7.8 15.6 0.00 0.03 0.00 55 1011.7
20221202133527 58 59 7.8 16.5 0.00 0.03 0.00 54 1011.8
20221202132542 58 64 7.8 15.6 0.00 0.03 0.00 54 1011.9
20221202131517 59 55 5.2 12.2 0.00 0.03 0.00 54 1012.1
20221202130533 59 46 7.8 14.8 0.00 0.03 0.00 54 1012.3
20221202125529 58 60 6.1 14.8 0.00 0.03 0.00 54 1012.4
20221202124524 58 49 11.3 22.6 0.00 0.03 0.00 54 1012.6
20221202122535 58 49 8.7 19.1 0.00 0.03 0.00 54 1012.8
20221202121550 58 63 7.8 15.6 0.00 0.03 0.00 55 1012.9
20221202120607 57 49 8.7 18.2 0.00 0.03 0.00 55 1013.2
20221202115522 57 45 9.6 19.1 0.00 0.03 0.00 56 1013.3
20221202114517 57 35 9.6 16.5 0.00 0.03 0.00 56 1013.6
20221202113532 56 39 7.8 15.6 0.00 0.03 0.00 57 1013.6
20221202112528 56 52 9.6 18.2 0.00 0.03 0.00 57 1013.9
20221202111522 56 56 7.8 19.1 0.00 0.03 0.00 58 1014.1
20221202110518 56 67 7.0 14.8 0.00 0.03 0.00 58 1014.1
20221202105553 56 53 7.0 15.6 0.00 0.03 0.00 59 1014.2
20221202104529 56 54 7.0 14.8 0.00 0.03 0.00 59 1014.3
20221202103525 55 44 7.8 15.6 0.00 0.03 0.00 59 1014.5
20221202102540 55 47 8.7 18.2 0.00 0.03 0.00 60 1014.6
20221202101535 55 41 9.6 18.2 0.00 0.03 0.00 59 1014.5
20221202100530 55 47 8.7 16.5 0.00 0.03 0.00 60 1014.7
20221202095526 55 49 10.4 21.7 0.00 0.03 0.00 60 1014.5
20221202094521 54 30 8.7 13.9 0.00 0.03 0.00 61 1014.5
20221202093516 54 35 7.8 13.9 0.00 0.03 0.00 61 1014.5
20221202092552 54 42 7.8 18.2 0.00 0.03 0.00 62 1014.4
20221202091527 54 23 7.8 14.8 0.00 0.03 0.00 62 1014.4
20221202090522 54 42 10.4 20.0 0.00 0.03 0.00 61 1014.3
20221202085538 53 38 7.0 14.8 0.00 0.03 0.00 63 1014.4
20221202084554 53 37 6.1 13.0 0.00 0.03 0.00 64 1014.4
20221202083529 53 29 6.1 11.3 0.00 0.03 0.00 65 1014.4
20221202082525 53 31 7.0 13.0 0.00 0.03 0.00 65 1014.3
20221202081520 53 35 6.1 11.3 0.00 0.03 0.00 65 1014.4
20221202080535 53 26 7.8 14.8 0.00 0.03 0.00 66 1014.5
20221202075611 53 29 6.1 11.3 0.00 0.03 0.00 66 1014.4
20221202074526 53 32 5.2 8.7 0.00 0.03 0.00 67 1014.4
20221202073521 53 29 7.0 13.0 0.00 0.03 0.00 67 1014.3
20221202072517 53 33 5.2 12.2 0.00 0.03 0.00 68 1014.3
20221202071533 53 27 5.2 12.2 0.00 0.03 0.00 68 1014.4
20221202070528 53 29 5.2 8.7 0.00 0.03 0.00 68 1014.4
20221202065544 53 31 5.2 9.6 0.00 0.03 0.00 68 1014.3
20221202064519 53 26 5.2 9.6 0.00 0.03 0.00 69 1014.2
20221202063555 53 34 4.3 8.7 0.00 0.03 0.00 69 1014.1
20221202062530 53 16 6.1 9.6 0.00 0.03 0.00 69 1014.2
20221202061525 53 27 5.2 8.7 0.00 0.03 0.00 68 1014.2
20221202060540 53 14 5.2 9.6 0.00 0.03 0.00 68 1014.2
20221202055536 53 33 3.5 7.0 0.00 0.03 0.00 68 1014.3
20221202054531 53 18 5.2 8.7 0.00 0.03 0.00 68 1014.2
20221202053547 53 17 5.2 8.7 0.00 0.03 0.00 69 1014.2